Retour au catalogue

FENGYUN 1C DEB

LostSSO
NORAD 36180·DEBRIS·🇨🇳 China

Lancé May 10, 1999 depuis Taiyuan Satellite Launch Center

Loading…

Prochains Passages (prochaines 24 heures)

TLE

PériméSource: Space-Track

Époque: Aug 7, 2026, 10:09 UTC

1 36180U 99025DTD 26219.42334113  .00000627  00000-0  24505-3 0  9998
2 36180  98.4285 277.7018 0210612  59.2308 302.9422 14.21365503739592

Suivez FENGYUN 1C DEB en temps réel avec AllMySat

Download on the App Store